Showing default

GONETS D1 3, 23789

Orbit data source: Space-Track

GONETS D1 3, 23789 is a payload satellite owned by Gonets (CIS) in LEO that was launched on Mon, 19 Feb 1996 UTC via a TSIKLON-3 launch vehicle from the Plesetsk Missile And Space Complex (PKMTR). Payload-class satellites include a variety of spacecraft equipped with specific instruments for various scientific and technological missions. These include communications satellites like Starlink; space stations such as the ISS; scientific satellites like the Hubble; Earth observation satellites from companies like Planet Labs, Umbra, and HawkEye 360; GPS; miniature CubeSats for education and research; and military/defense satellites.

Loading next visibility...
Identifier
23789, 1996-009C
Orbit
LEO
Country
Flag of CISCIS
Related business
Manufacturer
NPO PM
Mission
Non-operational Civil Communications
Bus & Motor
STRELA-3, Unknown motor
Mass
225 kg wet, 225 kg dry
Launch date (UTC)
1996-02-19 (30 years ago)
Launch vehicle
TSIKLON-3
Launch site
Plesetsk Missile And Space Complex (PKMTR)
Object type
Payload
Rocket body
Debris
Shape & HBR
Cyl + 1 Ant, 3.5 m
Radar Cross Section
1.798 m², Medium (>0.1 m² and < 1m²)

Expand to show TLE details & history
Last TLE update: 19 hours ago

TLE from 19 hours ago
0 GONETS D1 3
1 23789U 96009C   25309.13334374  .00000019  00000-0  47540-4 0  9994
2 23789  82.5751 102.9163 0005073 203.8636 156.2221 12.62678306369372
Epoch: 2025-11-05T03:12Z
TLE epoch observation values (Epoch: 2025-11-05T03:12:00.899Z)
Latitude
0.00002°
Longitude
10.30217°
Altitude
1,418.257 km
Speed
7.15 km/s
True Right ascension
06h 51m 39s
True Declination
0° 00' 00"
Sunlit
Object was in daylight at epoch
Visualization orbit readout
Latitude
Unknown
Longitude
Unknown
Altitude
Unknown
Speed
Unknown
Apparent Right ascension
Unknown
Apparent Declination
Unknown
Sunlit
N/A
Visualization observer readout
Local Sidereal Time
17:53:48
Azimuth
Unknown
Elevation
Unknown
Doppler factor
Unknown
Orbital elements
Apogee altitude
1,413.18 km
Perigee altitude
1,405.279 km
Semi-major axis
7,787.366 km
Eccentricity
0.00051
Inclination
82.5751°
RAAN
102.9163°
Arg. of periapsis
203.8636°
True anomaly
156.24552°
Mean anomaly
156.2221°
Eccentric anomaly
156.23381°
Mean motion
3.15833 °/min
Orbital period
113.98 mins
BSTAR
0.00004754
Loading maneuver chart data...
Computing Atmospheric mass density...
Loading historical data...
Loading historical data...
Loading historical data...
Loading historical data...
Loading historical data...
Loading historical data...
Loading historical data...

Documentation

Showing up to 5 results
|